FENGYUN 1C DEB, 46450

Orbit data source: Space-Track

FENGYUN 1C DEB, 46450 is space debris in SSO originally from a launch on Mon, 10 May 1999 UTC launched from the Taiyaun Space Center, China (TSC). Fengyun 1C debris stems from the Chinese weather satellite Fengyun-1C, which was intentionally destroyed by a Chinese anti-satellite missile in 2007. This event dramatically increased the amount of space debris, with thousands of trackable fragments posing hazards to satellites and human spaceflight. The Fengyun 1C debris cloud has become a focal point in discussions about space sustainability and the need for international regulations to prevent the creation of new debris.

Loading next visibility...
Identifier
46450, 1999-025EZF
Orbit
SSO
Country
Flag of CNCN / PRC
Related business
Manufacturer
Unknown
Mission
Spacecraft
Bus & Motor
Unknown
Mass
Unknown
Launch date (UTC)
1999-05-10 (27 years ago)
Launch vehicle
Unknown
Launch site
Taiyaun Space Center, China (TSC)
Object type
Payload
Rocket body
Debris
Shape & HBR
Unknown shape, 0.1 m
Radar Cross Section
Small (<0.1 m²)

Expand to show TLE details & history
Last TLE update: 2 weeks ago

TLE from 2 weeks ago
0 FENGYUN 1C DEB
1 46450U 99025EZF 26060.35733288  .00004463  00000-0  24467-2 0  9999
2 46450  98.0797 273.3872 0180640 196.9819 162.5255 14.04309367622222
Epoch: 2026-03-01T08:34Z
TLE epoch observation values (Epoch: 2026-03-01T08:34:33.560Z)
Latitude
-0.00003°
Longitude
-14.41889°
Altitude
1,007.098 km
Speed
7.284 km/s
True Right ascension
18h 13m 32s
True Declination
0° 00' 00"
Sunlit
Object was in daylight at epoch
Visualization orbit readout
Latitude
Unknown
Longitude
Unknown
Altitude
Unknown
Speed
Unknown
Apparent Right ascension
Unknown
Apparent Declination
Unknown
Sunlit
N/A
Visualization observer readout
Local Sidereal Time
17:01:34
Azimuth
Unknown
Elevation
Unknown
Doppler factor
Unknown
Orbital elements
Apogee altitude
1,007.1 km
Perigee altitude
745.02 km
Semi-major axis
7,254.197 km
Eccentricity
0.01806
Inclination
98.0797°
RAAN
273.3872°
Arg. of periapsis
196.9819°
True anomaly
163.13395°
Mean anomaly
162.5255°
Eccentric anomaly
162.83102°
Mean motion
3.51285 °/min
Orbital period
102.48 mins
BSTAR
0.0024467
Loading maneuver chart data...
Computing Atmospheric mass density...

Documentation

Showing up to 5 results
|